Regional Weather Roundup
Issued by NWS

Home | Current Version | Previous Version | Graphics & Text | Print | Product List | Glossary On
Versions: 1 2 3 4 5 6 7 8 9 10 11 12 13 14 15 16 17 18 19 20 21 22 23 24 25 26 27 28 29 30 31 32 33 34 35 36 37 38 39 40 41 42 43 44 45 46 47 48 49 50
000
ASUS43 KOAX 220610
RWRNE

WEATHER ROUNDUP FOR NEBRASKA
NATIONAL WEATHER SERVICE OMAHA NE
1200 AM CST SUN JAN 22 2017

NOTES: SATELLITE DATA IS BEING USED TO AUGMENT CLOUD COVER ABOVE
       12000 FEET.
       "FAIR" INDICATES FEW OR NO CLOUDS BELOW 12,000 FEET WITH NO
       SIGNIFICANT WEATHER AND/OR OBSTRUCTIONS TO VISIBILITY.

  * THESE STATIONS DO NOT REPORT WEATHER SUCH AS RAIN...SNOW OR FOG.

NEZ001>004-019>022-054>056-220700-
NEBRASKA PANHANDLE

CITY           SKY/WX    TMP DP  RH WIND       PRES   REMARKS
SCOTTSBLUFF    CLEAR     26  23  88 NW6       29.67R WCI  19
6HR MIN TEMP:  26; 6HR MAX TEMP:  36;

ALLIANCE       CLOUDY    21  18  88 NW3       29.66R
6HR MIN TEMP:  20; 6HR MAX TEMP:  35;

CHADRON        CLEAR     21  18  88 SW3       29.68R
6HR MIN TEMP:  20; 6HR MAX TEMP:  32;

KIMBALL        CLOUDY    35  28  75 W12       29.66R WCI  26
SIDNEY         CLOUDY    29  26  89 SW8       29.65R WCI  21
6HR MIN TEMP:  24; 6HR MAX TEMP:  34;

$$

NEZ057>060-069>072-079>082-220700-
SOUTHWEST NEBRASKA

CITY           SKY/WX    TMP DP  RH WIND       PRES   REMARKS
NORTH PLATTE   PTCLDY    29  25  85 NW3       29.64R
6HR MIN TEMP:  26; 6HR MAX TEMP:  38;

IMPERIAL       CLEAR     29  25  85 N5        29.65R WCI  24
6HR MIN TEMP:  29; 6HR MAX TEMP:  36;

LEXINGTON      CLOUDY    29  27  92 NW6       29.62R WCI  23
MCCOOK         CLEAR     32  27  81 NW12      29.62R WCI  23
6HR MIN TEMP:  31; 6HR MAX TEMP:  45;

OGALLALA       CLOUDY    28  26  91 W5        29.65R WCI  23
$$

NEZ005>010-023>029-035>040-094-220700-
NORTH CENTRAL NEBRASKA

CITY           SKY/WX    TMP DP  RH WIND       PRES   REMARKS
VALENTINE      CLEAR     24  22  91 W6        29.65R WCI  17
6HR MIN TEMP:  23; 6HR MAX TEMP:  36;

AINSWORTH      CLEAR     28  28  97 W7        29.63R WCI  21
BROKEN BOW     CLOUDY    33  29  85 CALM      29.61R
6HR MIN TEMP:  32; 6HR MAX TEMP:  42;

O`NEILL        CLEAR     33  30  90 W8        29.62R WCI  26
ORD            CLEAR     27  24  89 CALM      29.61R
6HR MIN TEMP:  27; 6HR MAX TEMP:  39;

THEDFORD       PTCLDY    28  26  96 W6        29.65R WCI  21
$$

NEZ041-046>049-061>064-073>077-083>087-220700-
SOUTH CENTRAL NEBRASKA

CITY           SKY/WX    TMP DP  RH WIND       PRES   REMARKS
GRAND ISLAND   CLOUDY    36  33  89 NW10      29.59S WCI  28
6HR MIN TEMP:  29; 6HR MAX TEMP:  42;

AURORA         CLOUDY    32  32 100 NW3       29.59R
HASTINGS       CLOUDY    32  30  92 NW6       29.59R WCI  26
6HR MIN TEMP:  31; 6HR MAX TEMP:  42;

HEBRON         MOCLDY    33  33 100 CALM      29.57S
HOLDREGE       MOCLDY    33  31  92 NW7       29.60R WCI  27
KEARNEY *      PTCLDY   N/A N/A N/A MISG        N/A
YORK           CLEAR     32  32 100 NW5       29.58R FOG     WCI  27
$$

NEZ011>018-030>034-042>045-220700-
NORTHEAST NEBRASKA

CITY           SKY/WX    TMP DP  RH WIND       PRES   REMARKS
NORFOLK        CLEAR     25  25 100 NW3       29.60R
6HR MIN TEMP:  25; 6HR MAX TEMP:  42;

ALBION         CLEAR     29  25  86 NW5       29.61R WCI  24
BLAIR          CLEAR     34  32  94 N14       29.57R WCI  24
FREMONT        CLEAR     33  33 100 N3        29.59S
TEKAMAH        CLEAR     31  29  92 NW3       29.61R
6HR MIN TEMP:  31; 6HR MAX TEMP:  41;

WAYNE          CLEAR     26  26  97 CALM      29.60R FOG
$$

NEZ050>053-065>068-078-088>093-220700-
SOUTHEAST NEBRASKA

CITY           SKY/WX    TMP DP  RH WIND       PRES   REMARKS
LINCOLN        CLOUDY    31  29  92 N3        29.59R
6HR MIN TEMP:  28; 6HR MAX TEMP:  42;

OMAHA EPPLEY   CLEAR     33  29  85 N12       29.57R WCI  24
6HR MIN TEMP:  29; 6HR MAX TEMP:  47;

BEATRICE       CLOUDY    32  32  99 CALM      29.56S
FALLS CITY     CLOUDY    36  35  96 CALM      29.55R
6HR MIN TEMP:  35; 6HR MAX TEMP:  49;

NEBRASKA CITY  PTCLDY    40  38  91 CALM      29.56S
PLATTSMOUTH    CLOUDY    42  34  72 CALM      29.56S
$$

NEZ044-045-051>053-067-220700-
OMAHA AREA

CITY           SKY/WX    TMP DP  RH WIND       PRES   REMARKS
OMAHA EPPLEY   CLEAR     33  29  85 N12       29.57R WCI  24
6HR MIN TEMP:  29; 6HR MAX TEMP:  47;

BLAIR          CLEAR     34  32  94 N14       29.57R WCI  24
FREMONT        CLEAR     33  33 100 N3        29.59S
MILLARD        CLEAR     33  32  96 NW3       29.58R
OFFUTT AFB     CLEAR     28  28 100 NW6       29.56S WCI  21
PLATTSMOUTH    CLOUDY    42  34  72 CALM      29.56S
WAHOO          FAIR      34  33  96 N8        29.58R WCI  27
$$




USA.gov is the U.S. government's official web portal to all federal, state and local government web resources and services.